C/2015 T2 ( PanSTARRS )

Japanese version
Home page
Updated on November 7, 2017

---------------------------------------------------------------------

* Profile

Discovery Date October 9, 2015
Magnitude 21.8 mag
Discoverer Pan-STARRS 1 telescope (Haleakala)

* Pictures

* Orbital Elements

Epoch 2017 May 7.0 TT = JDT 2457880.5
T 2017 May 20.45192 TT                                  MPCW
q   6.9353598            (2000.0)            P               Q
z  -0.0000520      Peri.   30.76272     +0.76567339     +0.05755273
 +/-0.0000009      Node    51.06043     +0.27837819     -0.92753196
e   1.0003603      Incl.  124.54723     +0.57987054     +0.36928599
From 156 observations 2015 Oct. 9-2017 Sept. 25, mean residual 0".4.

* Magnitudes Graph

        m1 = 7.0 + 5 log d + 10.0 log r

---------------------------------------------------------------------

The orbital elements are published on M.P.E.C. 2017-T14.
The magnitudes graphs are made with Comet for Windows.

---------------------------------------------------------------------

Copyright(C) Seiichi Yoshida (comet@aerith.net). All rights reserved.